Retour au catalogue

STARLINK-30226

ActifCommunicationsVLEO
NORAD 57497·PAYLOAD·🇺🇸 United States

Lancé Aug 7, 2023 depuis Cape Canaveral Space Force Station

Loading…

Prochains Passages (prochaines 24 heures)

TLE

FraisSource: CelesTrak SupGP

Époque: Sep 14, 2026, 21:03 UTC

1 57497C 23113C   26257.87756944  .00029991  00000+0  10855-2 0  2571
2 57497  43.0017  27.7197 0001641 271.7631 253.9563 15.27585310    12

Suivez STARLINK-30226 en temps réel avec AllMySat

Download on the App Store